Lapse_Rate
5.5 6.5 6.5 6.5 6.5 6.5 6.5 6.5 6.5 6.5 6.5 6.5 6.5 6.5 6.5 6.3 6.8 6.9 7.0 7.0 7.1 6.7 6.7 3.6 2.9 2.5 2.8 3.7 4.4 3.9 3.5 4.1 3.8 3.7 4.3 3.5 4.0 4.2 4.5 5.0 5.3 5.6 6.2 6.5
6.5 6.5 6.5 6.5 6.5 6.5 6.5 6.5 6.5 6.5 6.5 6.5 6.5 6.5 6.5 6.3 6.4 7.0 6.8 7.1 6.9 5.5 4.9 5.5 3.6 2.0 2.5 2.8 4.2 4.5 4.3 4.4 4.3 4.3 3.8 3.6 3.3 3.6 4.2 5.4 6.0 6.6 6.5 6.5
6.5 6.5 6.5 6.5 6.5 6.5 6.5 6.5 6.5 6.5 6.5 6.5 6.5 6.5 6.5 6.5 6.1 7.0 7.0 7.5 7.0 7.0 5.7 5.5 4.4 3.3 1.8 1.4 2.0 3.5 4.4 5.0 4.8 4.8 4.3 4.1 3.8 4.0 4.4 4.9 5.2 5.9 6.6 6.3
6.5 6.4 6.5 6.5 6.5 6.5 6.5 6.5 6.5 6.5 6.5 6.5 6.5 6.5 6.5 6.5 6.5 6.4 6.9 6.9 7.0 6.9 4.5 5.1 4.9 1.6 2.0 1.7 1.6 1.1 1.6 2.5 3.9 4.3 4.6 4.3 4.8 5.1 4.7 4.8 5.4 5.5 6.3 6.0
6.5 6.5 6.5 6.5 6.5 6.5 6.5 6.5 6.5 6.5 6.5 6.5 6.5 6.5 6.5 6.5 6.5 6.5 5.9 6.7 7.0 7.2 7.3 5.8 3.4 4.0 2.5 1.3 0.6 0.4 0.9 0.8 1.3 1.4 4.1 5.1 5.4 5.4 4.7 4.9 4.7 5.5 5.4 5.9
6.5 6.1 6.5 6.5 6.5 6.5 6.5 6.5 6.5 6.5 6.5 6.5 6.5 6.5 6.5 6.5 6.5 6.5 6.2 5.7 6.1 6.3 6.2 6.1 7.1 4.2 0.8 1.5 0.3 0.4 0.1 -0.1 0.5 0.7 1.1 1.8 4.3 4.8 5.0 5.0 4.7 4.8 4.9 4.6
6.5 6.5 6.5 6.4 6.5 6.5 6.5 6.5 6.5 6.5 6.5 6.5 6.5 6.5 6.5 6.5 6.5 6.5 6.4 5.7 5.5 5.3 5.9 4.9 4.0 3.7 3.5 2.8 2.1 2.9 2.0 0.8 0.8 0.8 0.3 0.3 1.1 1.5 3.1 4.1 4.7 4.6 4.4 4.4
6.5 6.5 6.5 6.5 6.5 6.5 6.5 6.5 6.5 6.5 6.5 6.5 6.5 6.5 6.5 6.5 5.9 5.9 6.0 5.9 5.6 4.9 4.9 5.3 5.5 4.5 3.4 3.1 2.8 2.0 1.4 1.2 1.4 1.4 0.8 0.7 0.7 0.9 1.3 1.8 1.6 2.5 4.1 5.2
6.5 6.5 6.5 6.5 6.5 6.5 6.5 6.5 6.5 6.5 6.5 6.5 6.5 6.5 6.5 6.5 6.5 6.2 6.1 5.7 5.4 5.2 4.8 4.6 4.3 4.4 3.4 2.2 1.9 1.9 2.0 1.6 1.4 2.1 2.1 1.4 1.5 1.3 0.9 1.2 1.4 1.7 1.5 2.5
6.5 6.5 6.5 6.5 6.4 6.4 6.5 6.5 6.5 6.5 6.5 6.5 6.5 6.5 6.5 6.5 6.5 6.5 6.4 5.7 5.6 5.3 4.8 4.3 3.7 2.7 3.1 2.7 1.7 1.0 1.3 1.8 1.8 1.9 1.5 1.4 1.2 1.4 1.3 1.2 0.8 1.0 1.0 1.2
6.5 6.5 6.5 6.5 6.5 6.5 6.5 6.5 6.5 6.5 6.5 6.5 6.5 6.5 6.5 6.5 6.5 6.5 6.1 5.7 5.1 4.8 4.4 3.6 3.3 3.5 2.9 2.3 2.6 2.2 1.2 0.8 0.7 1.4 1.7 1.2 0.8 1.0 1.0 0.7 0.7 0.5 0.5 0.6
6.5 6.5 6.5 6.5 6.5 6.5 6.5 6.5 6.5 6.5 6.5 6.5 6.5 6.5 6.5 6.5 6.3 6.1 6.0 5.6 4.8 4.3 4.1 3.5 3.0 2.1 1.9 2.4 2.6 2.1 2.1 2.2 1.8 1.6 1.3 1.4 1.2 0.8 0.7 0.7 0.7 0.9 0.6 0.9
6.5 6.5 6.5 6.5 6.5 6.5 6.5 6.5 6.5 6.5 6.5 6.5 6.5 6.5 6.5 6.0 6.2 5.6 5.5 5.3 5.1 4.9 4.1 3.4 2.9 2.8 2.6 2.0 1.7 1.7 2.1 2.5 2.9 2.8 2.4 2.1 1.4 1.3 1.3 1.3 1.3 1.4 1.2 1.1
5.8 6.5 6.5 6.5 6.5 6.5 6.5 6.5 6.5 6.5 6.5 6.5 6.5 6.5 6.5 6.5 6.5 5.9 5.5 4.9 4.8 5.1 5.3 4.6 3.5 2.9 2.8 2.9 3.2 3.2 3.0 2.5 2.6 2.9 2.8 2.8 2.6 2.5 2.2 2.1 2.1 2.0 2.0 1.8
6.4 6.5 6.5 6.5 6.5 6.5 6.5 6.5 6.5 6.5 6.5 6.5 6.5 6.5 6.5 6.5 6.5 6.2 5.4 5.4 5.4 5.4 5.3 5.0 4.5 3.6 3.3 3.0 3.4 3.7 3.6 3.6 3.9 3.6 3.2 3.3 3.4 3.4 3.3 2.9 2.5 2.2 2.0 2.0
6.4 6.5 6.5 6.5 6.5 6.5 6.5 6.5 6.5 6.5 6.5 6.5 6.5 6.5 6.5 6.3 6.3 6.3 6.2 6.2 5.7 5.7 5.7 5.4 5.4 5.3 4.8 3.9 3.9 4.0 3.6 3.7 4.1 4.1 4.4 4.4 3.8 3.7 3.4 3.2 2.9 2.9 2.5 2.3
6.5 6.5 6.5 6.5 6.5 6.5 6.5 6.5 6.5 6.5 6.5 6.5 6.5 6.5 6.5 6.5 6.7 6.7 6.3 5.9 5.5 5.3 5.4 5.1 4.3 3.5 2.7 2.4 2.6 2.4 2.2 2.4 2.2 2.4 3.1 3.4 3.6 3.4 3.7 3.9 3.7 3.4 2.9 2.7
6.5 6.5 6.5 6.5 6.5 6.5 6.5 6.5 6.5 6.5 6.5 6.5 6.5 6.5 6.6 6.6 5.9 5.9 5.7 5.1 5.2 5.7 5.5 4.9 4.0 3.7 3.3 3.0 2.9 2.3 2.4 2.3 2.5 2.5 2.5 2.4 2.3 2.4 2.5 2.6 2.7 2.9 3.3 3.1
5.9 6.5 6.5 6.5 6.5 6.5 6.5 6.5 6.5 6.5 6.5 6.5 6.5 6.6 6.6 6.2 6.1 6.6 6.4 5.9 5.6 5.8 5.4 4.8 4.1 4.4 4.0 3.8 3.4 3.1 3.1 2.8 2.8 2.9 2.9 3.4 3.6 3.3 3.0 3.0 2.9 2.9 2.7 2.6
6.5 6.5 6.5 6.5 6.5 6.5 6.5 6.5 6.3 6.4 6.5 6.5 6.5 6.6 6.6 6.4 6.5 6.5 6.4 6.1 5.8 5.7 5.3 5.2 5.2 5.1 4.3 3.7 3.4 3.5 3.4 3.2 3.1 3.4 3.4 3.7 4.0 3.9 3.5 3.6 3.4 3.3 3.1 3.6
6.5 6.5 6.5 6.5 6.5 6.5 6.5 6.4 5.9 6.5 6.5 6.0 5.6 5.8 6.0 6.4 5.6 5.5 6.0 5.9 6.1 5.9 6.0 5.8 5.1 4.5 4.3 4.1 3.9 3.6 3.4 3.5 3.9 4.3 4.3 4.4 4.4 4.0 4.0 3.6 3.4 3.3 3.2 3.2
6.5 6.5 6.5 6.5 6.5 6.5 5.9 6.4 6.5 6.3 6.1 5.8 5.5 5.6 5.5 5.6 5.9 5.8 6.0 6.2 6.3 5.9 5.8 5.4 4.4 4.1 4.2 4.4 3.8 3.8 3.6 4.9 4.5 4.3 4.3 4.1 3.9 4.3 5.2 4.3 4.0 3.9 3.3 2.9
6.5 6.5 6.5 6.5 6.5 6.6 6.1 5.8 5.7 6.0 5.4 5.9 5.4 5.9 6.4 6.4 6.5 6.6 6.3 6.2 6.0 5.7 5.3 5.4 4.3 3.6 4.2 4.0 4.1 4.3 4.7 4.3 4.0 4.0 3.8 3.7 4.1 4.5 4.8 5.0 4.8 4.4 4.2 4.6
6.5 5.8 6.5 6.5 6.4 6.5 6.2 5.5 5.1 5.3 5.1 5.8 5.9 6.5 6.4 5.9 6.0 6.1 5.8 5.6 5.2 5.0 5.0 4.7 4.1 3.6 3.3 4.0 5.0 4.2 4.1 4.5 4.2 4.0 3.8 4.0 4.2 4.5 4.8 5.0 5.2 5.2 5.0 5.3
5.9 6.3 6.5 6.5 6.4 6.6 6.4 6.0 5.3 5.1 5.0 5.3 6.7 6.7 6.4 6.2 6.1 6.0 5.5 5.2 4.9 5.0 4.9 4.6 4.3 4.4 4.1 3.6 3.6 3.6 5.0 4.4 4.4 4.5 4.3 4.1 4.7 4.2 4.5 5.0 5.3 5.6 6.1 7.6
5.6 6.5 6.5 6.5 6.4 6.2 6.6 6.1 5.8 5.5 5.9 6.7 6.3 6.1 6.1 6.1 5.9 5.8 5.1 5.0 4.9 4.6 4.6 4.6 4.6 4.6 3.9 3.7 3.8 3.9 4.3 4.9 4.1 3.9 4.5 4.2 4.7 4.1 5.3 4.7 4.5 6.0 7.5 9.4
Wind_Speed
3 6 1 3 3 5 4 3 4 3 6 6 4 2 5 8 14 18 18 19 19 19 16 21 21 21 20 20 6 6 10 8 6 4 2 6 5 3 3 7 11 10 12 11
6 1 3 3 2 1 1 2 2 5 6 6 3 1 2 4 9 11 13 17 20 21 22 22 21 22 19 18 16 7 10 10 6 4 3 4 5 3 2 4 9 8 8 10
4 2 1 2 3 5 2 2 2 4 5 5 7 3 2 3 7 12 13 13 15 17 17 18 21 20 19 21 19 15 13 10 8 8 7 7 6 3 2 3 3 3 6 7
2 1 1 2 2 3 2 5 2 2 1 2 5 4 2 2 7 10 13 13 12 17 18 16 18 23 21 18 16 19 18 18 13 11 7 9 3 2 1 2 2 3 3 6
4 2 2 1 1 3 6 5 4 3 2 2 3 3 3 2 4 6 8 10 11 11 13 16 15 15 16 17 17 17 17 20 19 18 11 5 3 2 2 2 5 4 2 1
4 1 2 2 3 4 6 1 3 3 2 1 4 4 3 2 3 2 4 6 9 9 11 13 12 12 15 14 17 17 20 20 19 17 17 17 11 7 5 6 4 5 4 4
6 2 1 1 4 2 7 4 2 3 2 4 1 3 3 4 3 3 3 6 7 7 10 13 15 15 16 17 17 15 17 17 16 17 18 17 17 16 13 9 4 5 4 3
2 7 3 3 1 3 3 2 3 3 2 3 2 4 3 4 6 5 6 4 6 8 8 11 12 13 14 15 16 16 17 17 17 15 15 13 15 8 9 11 9 8 7 4
5 5 3 2 1 4 1 2 1 1 1 1 1 2 1 4 4 4 4 6 6 7 8 10 11 12 12 13 15 15 14 15 16 13 12 13 12 13 10 11 10 7 9 8
0 5 2 3 1 2 2 3 1 2 1 3 2 3 4 11 8 5 4 5 5 5 7 8 10 12 11 11 11 13 13 13 13 13 12 10 11 11 11 10 11 11 8 11
1 2 6 3 0 1 3 1 1 2 3 2 3 4 3 12 9 8 5 4 5 5 6 6 6 7 7 8 9 10 12 13 12 10 10 10 10 11 11 10 10 10 11 12
0 3 4 7 2 2 1 2 2 2 3 2 2 4 2 8 9 9 7 5 4 5 6 6 6 6 7 7 8 9 10 10 11 10 10 10 10 11 11 10 11 14 11 13
1 1 4 8 3 0 3 2 3 2 2 5 2 4 2 6 9 6 9 6 5 4 5 6 6 6 6 7 9 9 9 8 8 7 7 9 11 11 11 11 10 12 10 9
2 3 7 7 8 3 5 8 5 6 4 5 8 3 6 9 10 8 7 7 6 5 5 4 5 5 6 5 5 6 8 9 9 9 7 10 10 9 9 9 10 10 11 10
3 5 5 8 8 6 13 16 12 13 16 12 17 9 7 17 14 11 9 7 6 5 4 4 3 4 5 6 5 5 5 6 6 6 5 6 6 7 8 9 11 10 9 9
2 4 2 5 9 11 16 19 18 16 14 14 17 18 2 9 11 8 9 8 6 5 4 2 2 0 2 3 3 3 3 3 2 4 3 5 6 7 8 8 9 9 11 11
4 3 2 6 3 7 13 10 8 4 3 4 8 5 10 11 11 9 7 6 5 4 2 1 2 3 3 3 2 4 4 4 4 5 4 5 6 7 7 8 8 10 11 11
4 4 2 4 4 4 5 2 1 3 3 1 7 10 8 10 8 8 4 5 5 3 1 2 3 5 6 6 7 7 8 7 7 7 8 10 10 10 10 10 9 9 9 10
7 5 2 3 3 7 5 1 3 4 4 1 6 8 10 11 7 2 3 3 4 3 1 1 2 3 5 5 5 5 6 5 6 7 7 8 8 9 10 11 9 9 9 9
3 2 5 3 4 5 1 3 0 2 4 3 7 9 9 7 3 3 5 5 4 3 1 2 2 2 4 6 5 5 5 5 5 7 8 8 7 8 10 9 9 9 9 11
3 2 11 10 5 7 3 3 1 2 2 3 3 5 5 4 1 5 5 3 2 2 3 3 3 3 5 5 5 5 5 6 6 8 9 9 8 9 9 10 9 10 11 10
7 7 4 4 5 9 4 2 6 4 3 6 4 4 6 6 5 4 4 3 3 3 3 4 4 4 5 5 5 5 6 7 7 7 9 9 9 8 9 11 10 11 11 11
4 6 4 9 5 2 1 2 2 3 4 3 5 4 4 5 3 2 1 1 1 3 3 3 4 5 4 5 4 5 9 8 7 8 8 8 9 9 10 8 10 9 9 9
4 3 4 1 3 5 6 4 4 6 7 7 7 5 3 3 2 1 1 1 2 3 4 2 4 5 6 5 5 6 8 8 8 9 8 8 8 10 6 7 7 8 8 8
4 5 4 2 3 4 3 4 7 8 8 7 5 3 4 3 1 1 2 3 4 4 4 4 5 5 6 6 6 7 9 7 8 8 8 8 7 7 8 7 7 8 8 11
4 5 6 4 7 2 4 9 9 8 7 5 4 3 2 2 2 2 3 3 4 5 4 5 5 7 8 7 8 9 7 7 7 8 7 6 7 7 7 8 8 16 19 20
Wind_Direction
19 67 323 253 223 222 226 207 242 264 163 86 96 126 314 336 12 16 6 4 6 5 353 7 4 359 7 2 10 80 80 86 116 118 177 139 128 125 123 133 132 140 158 173
20 123 232 258 98 297 119 157 289 285 131 88 191 226 277 338 24 13 18 8 359 359 2 3 3 5 8 9 6 67 81 73 71 115 127 79 81 44 19 97 103 136 163 162
154 237 229 90 59 22 344 167 250 222 340 65 128 342 310 65 19 9 20 30 11 8 357 1 8 6 8 13 6 24 42 55 60 64 73 89 69 61 282 52 82 91 132 145
218 341 21 35 106 122 299 217 246 228 80 246 172 276 279 175 30 17 10 14 17 14 5 7 7 15 6 6 6 24 31 35 37 36 46 68 73 95 348 42 100 85 126 141
264 326 346 336 211 158 237 162 230 228 182 7 207 97 205 18 332 12 4 10 11 29 13 13 21 8 9 13 14 19 33 38 35 37 24 70 78 75 64 82 18 17 10 191
259 283 174 275 320 187 287 26 68 58 94 11 229 137 240 244 264 22 348 8 11 15 21 28 25 31 23 17 21 22 26 33 34 35 32 30 51 35 38 50 50 17 346 344
333 318 320 28 339 20 28 35 357 354 358 228 157 62 261 159 157 146 80 20 6 1 24 25 22 23 26 26 22 26 30 34 31 35 34 32 36 28 25 18 43 51 30 358
46 334 1 13 86 305 332 131 146 266 239 282 14 248 309 159 148 123 94 55 19 18 24 34 33 28 23 26 27 26 25 28 28 28 35 31 37 36 28 24 32 30 10 346
12 284 329 245 239 135 358 6 217 174 294 3 166 328 349 163 163 124 84 64 32 24 23 28 29 36 29 25 24 25 26 28 29 22 31 32 29 26 28 27 21 19 21 8
338 305 279 294 339 264 193 164 351 1 277 268 255 261 250 195 192 173 137 91 67 34 29 31 28 24 29 27 21 19 29 32 30 21 28 29 29 25 21 16 21 12 15 9
87 126 289 341 154 295 343 316 203 173 174 255 301 254 226 194 174 169 160 124 99 75 51 35 31 24 15 15 26 25 21 17 20 27 30 26 24 23 24 21 12 4 6 7
216 160 284 258 264 234 237 302 103 119 292 275 233 265 11 139 150 150 148 131 92 73 62 47 31 16 21 30 27 19 16 16 13 5 17 22 22 17 16 12 6 2 0 360
252 280 331 330 15 301 85 255 202 151 146 211 202 263 82 116 133 149 142 135 120 95 63 47 36 27 15 8 10 14 14 13 9 8 17 13 11 11 8 5 358 354 354 352
133 220 193 229 250 209 259 252 262 207 210 235 224 237 207 187 164 157 146 140 131 112 96 71 39 21 15 13 12 6 359 355 354 360 11 14 6 358 354 353 347 349 347 346
171 232 219 255 270 269 265 260 248 231 245 239 262 227 207 193 175 165 151 141 131 117 90 71 52 15 2 2 6 5 359 349 343 343 4 4 353 350 347 350 343 339 340 338
203 261 259 264 257 262 279 272 260 248 256 266 261 262 232 144 132 139 150 145 140 136 128 112 78 19 286 278 273 301 311 319 318 338 4 348 338 339 340 339 339 335 333 331
199 194 6 278 339 320 283 273 255 196 181 240 253 243 147 137 140 145 143 141 139 142 126 55 357 333 328 354 356 358 342 329 350 349 358 350 343 340 336 332 333 331 327 321
186 143 170 286 339 243 257 9 50 86 42 69 95 116 120 121 103 115 119 143 152 146 43 351 354 355 358 355 354 345 351 356 355 352 353 347 346 343 342 336 330 325 320 317
183 161 229 258 225 294 250 189 147 182 214 221 135 111 112 118 100 93 128 131 150 154 136 20 4 354 344 344 334 343 343 340 341 343 339 335 332 327 329 326 322 320 315 311
85 174 184 184 247 258 200 164 146 191 268 188 157 146 146 154 186 159 162 140 135 119 67 358 352 342 343 323 334 341 331 329 326 330 326 321 319 320 316 310 315 312 308 310
136 178 212 224 253 275 152 146 255 163 253 106 96 120 145 174 125 126 133 114 104 96 359 17 360 333 313 320 335 331 325 320 309 319 316 316 318 315 312 315 316 315 316 311
176 173 199 188 223 264 148 126 191 151 70 111 90 96 101 113 118 118 111 81 43 19 355 338 329 320 319 325 331 321 316 313 307 304 311 312 313 312 315 312 312 318 314 313
238 200 187 198 217 86 50 73 82 143 123 114 115 108 113 126 122 104 93 80 13 346 324 309 308 311 313 315 312 308 308 311 306 308 302 300 305 305 305 304 312 310 310 309
239 208 197 124 183 166 146 86 74 81 106 101 117 131 117 132 133 137 234 323 328 304 309 301 325 311 302 298 300 281 295 306 301 299 296 298 302 301 312 299 300 297 301 298
183 154 185 239 101 84 187 142 130 116 119 124 114 107 110 118 72 5 345 331 320 312 325 331 310 299 295 296 288 283 299 292 289 289 296 296 295 297 299 289 295 289 279 284
196 176 192 228 141 122 127 141 138 137 141 131 119 103 69 67 12 356 331 328 316 310 320 310 304 306 303 299 296 297 293 289 285 295 301 299 303 295 295 295 292 289 293 298